{"data":{"norad_id":68430,"intl_designator":"2026-067Q","name":"TRANSPORTER-16 OBJECT Q","alt_names":[],"object_type":"PAYLOAD","status":"ACTIVE","operator":null,"country":"TBD","launch_date":"2026-03-30","launch_site_code":"AFWTR","launch_vehicle":null,"mission":null,"orbit_class":"UNKNOWN","rcs_meters":null,"size_class":null,"mass_kg":null,"dimensions":null,"purposes":[],"wikipedia_slug":null,"has_3d_model":false,"image_url":null,"decayed_at":null,"tle_current":{"epoch":"2026-05-24T20:37:16.585536Z","epoch_age_seconds":83351,"freshness":"FRESH","line1":"1 68430U 26067Q   26144.85921974  .00005891  00000+0  28728-3 0  9996","line2":"2 68430  97.4481 103.6693 0002648  82.3236 277.8299 15.18690179  8401","mean_motion":15.18690179,"eccentricity":0.0002648,"inclination_deg":97.4481,"raan_deg":103.6693,"arg_perigee_deg":82.3236,"mean_anomaly_deg":277.8299,"bstar":0.00028728,"rev_number":840,"period_min":94.8185495575,"perigee_km":507.97425797341,"apogee_km":511.62210844644,"semimajor_km":6887.9351832099,"source":"CELESTRAK","updated_at":"2026-05-25T13:38:07.814474Z"}}}